Time,TemperatureF,DewpointF,PressureIn,WindDirection,WindDirectionDegrees,WindSpeedMPH,WindSpeedGustMPH,Humidity,HourlyPrecipIn,Conditions,Clouds,dailyrainin,SoftwareType,DateUTC
2013-05-18 00:01:00,52.6,38.3,30.14,NNE,16,0.0,0.0,58,0.00,,CLR,0.00,VWS V14.00,2013-05-18 04:01:00,
2013-05-18 00:02:00,52.6,38.3,30.14,NNE,16,0.0,0.0,58,0.00,,CLR,0.00,VWS V14.00,2013-05-18 04:02:00,
2013-05-18 00:07:00,52.5,38.6,30.14,NNE,16,0.0,0.0,59,0.00,,CLR,0.00,VWS V14.00,2013-05-18 04:07:00,
2013-05-18 00:12:00,52.3,38.0,30.14,NNE,16,0.0,0.0,58,0.00,,CLR,0.00,VWS V14.00,2013-05-18 04:12:00,
2013-05-18 00:17:00,52.2,37.9,30.14,NNE,16,0.0,0.0,58,0.00,,CLR,0.00,VWS V14.00,2013-05-18 04:17:00,
2013-05-18 00:22:00,52.2,37.9,30.14,NNE,16,0.0,0.0,58,0.00,,CLR,0.00,VWS V14.00,2013-05-18 04:22:00,
2013-05-18 00:27:00,52.0,38.1,30.14,NNE,16,0.0,0.0,59,0.00,,CLR,0.00,VWS V14.00,2013-05-18 04:27:00,
2013-05-18 00:31:00,51.9,38.0,30.14,NNE,16,0.0,0.0,59,0.00,,CLR,0.00,VWS V14.00,2013-05-18 04:31:00,
2013-05-18 00:36:00,51.7,37.8,30.14,NNE,16,0.0,0.0,59,0.00,,CLR,0.00,VWS V14.00,2013-05-18 04:36:00,
2013-05-18 00:41:00,51.4,38.0,30.14,NNE,16,1.0,1.0,60,0.00,,CLR,0.00,VWS V14.00,2013-05-18 04:41:00,
2013-05-18 00:46:00,51.3,37.9,30.14,NNE,16,0.0,0.0,60,0.00,,CLR,0.00,VWS V14.00,2013-05-18 04:46:00,
2013-05-18 00:51:00,51.1,37.7,30.14,NNE,16,0.0,0.0,60,0.00,,CLR,0.00,VWS V14.00,2013-05-18 04:51:00,
2013-05-18 00:57:00,50.8,37.4,30.14,NNE,16,0.0,0.0,60,0.00,,CLR,0.00,VWS V14.00,2013-05-18 04:57:00,
2013-05-18 01:02:00,50.7,37.3,30.14,NNE,16,1.0,1.0,60,0.00,,CLR,0.00,VWS V14.00,2013-05-18 05:02:00,
2013-05-18 01:07:00,50.5,37.2,30.14,NNE,16,0.0,0.0,60,0.00,,CLR,0.00,VWS V14.00,2013-05-18 05:07:00,
2013-05-18 01:12:00,50.2,36.9,30.14,NNE,16,0.0,0.0,60,0.00,,CLR,0.00,VWS V14.00,2013-05-18 05:12:00,
2013-05-18 01:17:00,50.2,36.9,30.14,NNE,16,0.0,0.0,60,0.00,,CLR,0.00,VWS V14.00,2013-05-18 05:17:00,
2013-05-18 01:22:00,50.1,36.8,30.14,NNE,16,0.0,0.0,60,0.00,,CLR,0.00,VWS V14.00,2013-05-18 05:22:00,
2013-05-18 01:27:00,50.1,36.8,30.14,NNE,16,0.0,0.0,60,0.00,,CLR,0.00,VWS V14.00,2013-05-18 05:27:00,
2013-05-18 01:32:00,49.9,36.6,30.14,NNE,16,0.0,0.0,60,0.00,,CLR,0.00,VWS V14.00,2013-05-18 05:32:00,
2013-05-18 01:37:00,49.8,36.9,30.14,NNE,16,0.0,1.0,61,0.00,,CLR,0.00,VWS V14.00,2013-05-18 05:37:00,
2013-05-18 01:42:00,49.8,36.9,30.14,NNE,16,0.0,0.0,61,0.00,,CLR,0.00,VWS V14.00,2013-05-18 05:42:00,
2013-05-18 01:47:00,49.6,36.3,30.14,NNE,16,0.0,0.0,60,0.00,,CLR,0.00,VWS V14.00,2013-05-18 05:47:00,
2013-05-18 01:52:00,49.5,36.2,30.14,NNE,16,0.0,0.0,60,0.00,,CLR,0.00,VWS V14.00,2013-05-18 05:52:00,
2013-05-18 01:57:00,49.5,36.2,30.14,NNE,16,0.0,1.0,60,0.00,,CLR,0.00,VWS V14.00,2013-05-18 05:57:00,
2013-05-18 02:02:00,49.5,36.6,30.14,NNE,16,1.0,1.0,61,0.00,,CLR,0.00,VWS V14.00,2013-05-18 06:02:00,
2013-05-18 02:07:00,49.4,36.5,30.14,NNE,16,0.0,1.0,61,0.00,,CLR,0.00,VWS V14.00,2013-05-18 06:07:00,
2013-05-18 02:12:00,49.4,36.5,30.14,NNE,16,0.0,0.0,61,0.00,,CLR,0.00,VWS V14.00,2013-05-18 06:12:00,
2013-05-18 02:17:00,49.2,36.3,30.14,NNE,16,0.0,0.0,61,0.00,,CLR,0.00,VWS V14.00,2013-05-18 06:17:00,
2013-05-18 02:22:00,49.2,36.3,30.14,NNE,16,0.0,0.0,61,0.00,,CLR,0.00,VWS V14.00,2013-05-18 06:22:00,
2013-05-18 02:27:00,49.1,36.2,30.14,NNE,16,0.0,0.0,61,0.00,,CLR,0.00,VWS V14.00,2013-05-18 06:27:00,
2013-05-18 02:32:00,48.9,36.1,30.14,NNE,16,0.0,0.0,61,0.00,,CLR,0.00,VWS V14.00,2013-05-18 06:32:00,
2013-05-18 02:37:00,48.9,36.1,30.14,NNE,16,0.0,0.0,61,0.00,,CLR,0.00,VWS V14.00,2013-05-18 06:37:00,
2013-05-18 02:42:00,48.9,36.5,30.14,NNE,16,0.0,0.0,62,0.00,,CLR,0.00,VWS V14.00,2013-05-18 06:42:00,
2013-05-18 02:47:00,48.8,36.8,30.14,NNE,16,0.0,0.0,63,0.00,,CLR,0.00,VWS V14.00,2013-05-18 06:47:00,
2013-05-18 02:52:00,48.6,36.6,30.14,NNE,16,0.0,0.0,63,0.00,,CLR,0.00,VWS V14.00,2013-05-18 06:52:00,
2013-05-18 02:57:00,48.6,36.6,30.14,NNE,16,0.0,0.0,63,0.00,,CLR,0.00,VWS V14.00,2013-05-18 06:57:00,
2013-05-18 03:02:00,48.5,36.9,30.15,NNE,16,0.0,0.0,64,0.00,,CLR,0.00,VWS V14.00,2013-05-18 07:02:00,
2013-05-18 03:07:00,48.3,36.7,30.15,NNE,16,0.0,0.0,64,0.00,,CLR,0.00,VWS V14.00,2013-05-18 07:07:00,
2013-05-18 03:12:00,48.2,36.6,30.15,NNE,16,0.0,0.0,64,0.00,,CLR,0.00,VWS V14.00,2013-05-18 07:12:00,
2013-05-18 03:17:00,48.0,36.4,30.15,NNE,16,0.0,0.0,64,0.00,,CLR,0.00,VWS V14.00,2013-05-18 07:17:00,
2013-05-18 03:22:00,48.0,36.4,30.15,NNE,16,0.0,0.0,64,0.00,,CLR,0.00,VWS V14.00,2013-05-18 07:22:00,
2013-05-18 03:27:00,47.9,36.3,30.15,NNE,16,0.0,0.0,64,0.00,,CLR,0.00,VWS V14.00,2013-05-18 07:27:00,
2013-05-18 03:32:00,47.7,36.1,30.16,NNE,16,0.0,0.0,64,0.00,,CLR,0.00,VWS V14.00,2013-05-18 07:32:00,
2013-05-18 03:37:00,47.6,36.0,30.16,NNE,16,0.0,0.0,64,0.00,,CLR,0.00,VWS V14.00,2013-05-18 07:37:00,
2013-05-18 03:42:00,47.4,36.2,30.16,NNE,16,0.0,0.0,65,0.00,,CLR,0.00,VWS V14.00,2013-05-18 07:42:00,
2013-05-18 03:47:00,47.3,36.2,30.16,NNE,16,0.0,0.0,65,0.00,,CLR,0.00,VWS V14.00,2013-05-18 07:47:00,
2013-05-18 03:52:00,47.3,36.2,30.16,NNE,16,0.0,0.0,65,0.00,,CLR,0.00,VWS V14.00,2013-05-18 07:52:00,
2013-05-18 03:57:00,47.1,36.0,30.16,NNE,16,0.0,0.0,65,0.00,,CLR,0.00,VWS V14.00,2013-05-18 07:57:00,
2013-05-18 04:02:00,47.0,36.2,30.16,NNE,16,0.0,0.0,66,0.00,,CLR,0.00,VWS V14.00,2013-05-18 08:02:00,
2013-05-18 04:07:00,46.8,36.0,30.16,NNE,16,0.0,0.0,66,0.00,,CLR,0.00,VWS V14.00,2013-05-18 08:07:00,
2013-05-18 04:12:00,46.5,35.8,30.16,NNE,16,0.0,0.0,66,0.00,,CLR,0.00,VWS V14.00,2013-05-18 08:12:00,
2013-05-18 04:17:00,46.4,35.7,30.17,NNE,16,0.0,0.0,66,0.00,,CLR,0.00,VWS V14.00,2013-05-18 08:17:00,
2013-05-18 04:22:00,46.4,35.7,30.17,NNE,16,0.0,0.0,66,0.00,,CLR,0.00,VWS V14.00,2013-05-18 08:22:00,
2013-05-18 04:27:00,46.2,35.5,30.17,NNE,16,0.0,0.0,66,0.00,,CLR,0.00,VWS V14.00,2013-05-18 08:27:00,
2013-05-18 04:32:00,46.2,35.9,30.17,NNE,16,0.0,0.0,67,0.00,,CLR,0.00,VWS V14.00,2013-05-18 08:32:00,
2013-05-18 04:37:00,46.2,35.9,30.17,NNE,16,0.0,0.0,67,0.00,,CLR,0.00,VWS V14.00,2013-05-18 08:37:00,
2013-05-18 04:42:00,46.2,36.2,30.17,NNE,16,0.0,0.0,68,0.00,,CLR,0.00,VWS V14.00,2013-05-18 08:42:00,
2013-05-18 04:47:00,46.2,36.2,30.17,NNE,16,0.0,0.0,68,0.00,,CLR,0.00,VWS V14.00,2013-05-18 08:47:00,
2013-05-18 04:52:00,46.1,36.1,30.17,NNE,16,0.0,1.0,68,0.00,,CLR,0.00,VWS V14.00,2013-05-18 08:52:00,
2013-05-18 04:57:00,46.0,36.0,30.17,NNE,16,1.0,1.0,68,0.00,,CLR,0.00,VWS V14.00,2013-05-18 08:57:00,
2013-05-18 05:02:00,45.8,35.8,30.17,NNE,16,0.0,0.0,68,0.00,,CLR,0.00,VWS V14.00,2013-05-18 09:02:00,
2013-05-18 05:07:00,45.7,35.8,30.17,NNE,16,0.0,0.0,68,0.00,,CLR,0.00,VWS V14.00,2013-05-18 09:07:00,
2013-05-18 05:12:00,45.7,36.1,30.17,NNE,16,0.0,0.0,69,0.00,,CLR,0.00,VWS V14.00,2013-05-18 09:12:00,
2013-05-18 05:17:00,45.5,35.9,30.18,NNE,16,0.0,0.0,69,0.00,,CLR,0.00,VWS V14.00,2013-05-18 09:17:00,
2013-05-18 05:22:00,45.4,36.2,30.18,NNE,16,0.0,0.0,70,0.00,,CLR,0.00,VWS V14.00,2013-05-18 09:22:00,
2013-05-18 05:27:00,45.2,36.0,30.18,NNE,16,0.0,0.0,70,0.00,,CLR,0.00,VWS V14.00,2013-05-18 09:27:00,
2013-05-18 05:32:00,45.1,36.3,30.19,NNE,16,0.0,0.0,71,0.00,,CLR,0.00,VWS V14.00,2013-05-18 09:32:00,
2013-05-18 05:37:00,45.1,36.3,30.19,NNE,16,0.0,0.0,71,0.00,,CLR,0.00,VWS V14.00,2013-05-18 09:37:00,
2013-05-18 05:42:00,44.9,36.1,30.19,NNE,16,0.0,0.0,71,0.00,,CLR,0.00,VWS V14.00,2013-05-18 09:42:00,
2013-05-18 05:47:00,44.8,36.0,30.19,NNE,16,0.0,0.0,71,0.00,,CLR,0.00,VWS V14.00,2013-05-18 09:47:00,
2013-05-18 05:52:00,44.8,36.0,30.19,NNE,16,0.0,0.0,71,0.00,,CLR,0.00,VWS V14.00,2013-05-18 09:52:00,
2013-05-18 05:57:00,44.6,36.2,30.19,NNE,16,0.0,0.0,72,0.00,,CLR,0.00,VWS V14.00,2013-05-18 09:57:00,
2013-05-18 06:02:00,44.6,36.2,30.20,NNE,16,0.0,0.0,72,0.00,,CLR,0.00,VWS V14.00,2013-05-18 10:02:00,
2013-05-18 06:07:00,44.5,36.4,30.20,NNE,16,0.0,0.0,73,0.00,,CLR,0.00,VWS V14.00,2013-05-18 10:07:00,
2013-05-18 06:12:00,44.5,36.4,30.20,NNE,16,0.0,1.0,73,0.00,,CLR,0.00,VWS V14.00,2013-05-18 10:12:00,
2013-05-18 06:17:00,44.3,36.5,30.20,NNE,16,0.0,0.0,74,0.00,,CLR,0.00,VWS V14.00,2013-05-18 10:17:00,
2013-05-18 06:22:00,44.3,36.5,30.20,NNE,16,0.0,0.0,74,0.00,,CLR,0.00,VWS V14.00,2013-05-18 10:22:00,
2013-05-18 06:27:00,44.3,36.5,30.20,NNE,16,0.0,0.0,74,0.00,,CLR,0.00,VWS V14.00,2013-05-18 10:27:00,
2013-05-18 06:32:00,44.3,36.5,30.20,NNE,16,0.0,0.0,74,0.00,,CLR,0.00,VWS V14.00,2013-05-18 10:32:00,
2013-05-18 06:37:00,44.3,36.9,30.20,NNE,16,0.0,0.0,75,0.00,,CLR,0.00,VWS V14.00,2013-05-18 10:37:00,
2013-05-18 06:42:00,44.5,37.4,30.20,NNE,16,0.0,0.0,76,0.00,,CLR,0.00,VWS V14.00,2013-05-18 10:42:00,
2013-05-18 06:47:00,44.5,37.4,30.21,NNE,16,0.0,0.0,76,0.00,,CLR,0.00,VWS V14.00,2013-05-18 10:47:00,
2013-05-18 06:52:00,44.6,37.8,30.21,NNE,16,0.0,0.0,77,0.00,,CLR,0.00,VWS V14.00,2013-05-18 10:52:00,
2013-05-18 06:57:00,44.6,37.8,30.21,NNE,16,0.0,1.0,77,0.00,,CLR,0.00,VWS V14.00,2013-05-18 10:57:00,
2013-05-18 07:02:00,44.8,38.0,30.21,NNE,16,0.0,0.0,77,0.00,,CLR,0.00,VWS V14.00,2013-05-18 11:02:00,
2013-05-18 07:07:00,44.8,38.0,30.21,NNE,16,0.0,0.0,77,0.00,,CLR,0.00,VWS V14.00,2013-05-18 11:07:00,
2013-05-18 07:12:00,44.9,38.1,30.21,NNE,16,0.0,0.0,77,0.00,,CLR,0.00,VWS V14.00,2013-05-18 11:12:00,
2013-05-18 07:17:00,45.1,38.7,30.22,NNE,16,0.0,0.0,78,0.00,,CLR,0.00,VWS V14.00,2013-05-18 11:17:00,
2013-05-18 07:22:00,45.4,39.0,30.22,NNE,16,0.0,0.0,78,0.00,,CLR,0.00,VWS V14.00,2013-05-18 11:22:00,
2013-05-18 07:27:00,46.1,39.6,30.22,NNE,16,0.0,0.0,78,0.00,,CLR,0.00,VWS V14.00,2013-05-18 11:27:00,
2013-05-18 07:32:00,47.1,40.3,30.22,NNE,16,0.0,0.0,77,0.00,,CLR,0.00,VWS V14.00,2013-05-18 11:32:00,
2013-05-18 07:37:00,48.0,40.8,30.22,NNE,16,0.0,0.0,76,0.00,,CLR,0.00,VWS V14.00,2013-05-18 11:37:00,
2013-05-18 07:42:00,48.9,41.7,30.22,NNE,16,0.0,0.0,76,0.00,,CLR,0.00,VWS V14.00,2013-05-18 11:42:00,
2013-05-18 07:47:00,49.1,41.5,30.22,NNE,16,0.0,0.0,75,0.00,,CLR,0.00,VWS V14.00,2013-05-18 11:47:00,
2013-05-18 07:52:00,49.6,41.7,30.22,NNE,16,0.0,0.0,74,0.00,,CLR,0.00,VWS V14.00,2013-05-18 11:52:00,
2013-05-18 07:57:00,50.1,41.8,30.22,NNE,16,0.0,0.0,73,0.00,,CLR,0.00,VWS V14.00,2013-05-18 11:57:00,
2013-05-18 08:02:00,50.4,42.1,30.22,NNE,16,0.0,1.0,73,0.00,,CLR,0.00,VWS V14.00,2013-05-18 12:02:00,
2013-05-18 08:07:00,50.5,41.8,30.22,NNE,16,0.0,0.0,72,0.00,,CLR,0.00,VWS V14.00,2013-05-18 12:07:00,
2013-05-18 08:12:00,51.0,41.9,30.22,NNE,16,0.0,0.0,71,0.00,,CLR,0.00,VWS V14.00,2013-05-18 12:12:00,
2013-05-18 08:17:00,51.6,42.5,30.23,NNE,16,0.0,1.0,71,0.00,,CLR,0.00,VWS V14.00,2013-05-18 12:17:00,
2013-05-18 08:22:00,51.7,42.2,30.23,NNE,16,0.0,0.0,70,0.00,,CLR,0.00,VWS V14.00,2013-05-18 12:22:00,
2013-05-18 08:27:00,52.2,42.7,30.23,NNE,16,0.0,0.0,70,0.00,,CLR,0.00,VWS V14.00,2013-05-18 12:27:00,
2013-05-18 08:32:00,52.5,42.6,30.23,NNE,16,0.0,0.0,69,0.00,,CLR,0.00,VWS V14.00,2013-05-18 12:32:00,
2013-05-18 08:37:00,53.1,43.6,30.23,NNE,16,0.0,0.0,70,0.00,,CLR,0.00,VWS V14.00,2013-05-18 12:37:00,
2013-05-18 08:42:00,53.3,44.2,30.23,NNE,16,0.0,0.0,71,0.00,,CLR,0.00,VWS V14.00,2013-05-18 12:42:00,
2013-05-18 08:47:00,53.6,44.1,30.23,NNE,16,0.0,0.0,70,0.00,,CLR,0.00,VWS V14.00,2013-05-18 12:47:00,
2013-05-18 08:52:00,53.9,44.3,30.23,NNE,16,0.0,0.0,70,0.00,,CLR,0.00,VWS V14.00,2013-05-18 12:52:00,
2013-05-18 08:57:00,54.2,43.9,30.23,NNE,16,0.0,0.0,68,0.00,,CLR,0.00,VWS V14.00,2013-05-18 12:57:00,
2013-05-18 09:02:00,54.5,43.0,30.23,NNE,16,0.0,0.0,65,0.00,,CLR,0.00,VWS V14.00,2013-05-18 13:02:00,
2013-05-18 09:07:00,55.0,43.1,30.23,NNE,16,0.0,0.0,64,0.00,,CLR,0.00,VWS V14.00,2013-05-18 13:07:00,
2013-05-18 09:12:00,55.6,43.6,30.23,NNE,16,1.0,1.0,64,0.00,,CLR,0.00,VWS V14.00,2013-05-18 13:12:00,
2013-05-18 09:17:00,55.9,43.5,30.23,NNE,16,0.0,0.0,63,0.00,,CLR,0.00,VWS V14.00,2013-05-18 13:17:00,
2013-05-18 09:22:00,56.3,43.9,30.23,NNE,16,0.0,1.0,63,0.00,,CLR,0.00,VWS V14.00,2013-05-18 13:22:00,
2013-05-18 09:27:00,56.7,44.7,30.23,NNE,16,0.0,0.0,64,0.00,,CLR,0.00,VWS V14.00,2013-05-18 13:27:00,
2013-05-18 09:32:00,57.0,45.0,30.23,NNE,16,0.0,1.0,64,0.00,,CLR,0.00,VWS V14.00,2013-05-18 13:32:00,
2013-05-18 09:37:00,57.5,45.0,30.23,NNE,16,1.0,1.0,63,0.00,,CLR,0.00,VWS V14.00,2013-05-18 13:37:00,
2013-05-18 09:42:00,58.1,45.6,30.23,NNW,336,0.0,1.0,63,0.00,,CLR,0.00,VWS V14.00,2013-05-18 13:42:00,
2013-05-18 09:47:00,58.6,46.5,30.23,ESE,106,1.0,2.0,64,0.00,,CLR,0.00,VWS V14.00,2013-05-18 13:47:00,
2013-05-18 09:52:00,58.9,45.9,30.23,ESE,109,1.0,2.0,62,0.00,,CLR,0.00,VWS V14.00,2013-05-18 13:52:00,
2013-05-18 09:57:00,59.2,46.6,30.23,SSW,200,1.0,1.0,63,0.00,,CLR,0.00,VWS V14.00,2013-05-18 13:57:00,
2013-05-18 10:02:00,59.5,46.9,30.23,SSW,200,1.0,1.0,63,0.00,,CLR,0.00,VWS V14.00,2013-05-18 14:02:00,
2013-05-18 10:07:00,59.8,46.8,30.23,SSW,193,0.0,1.0,62,0.00,,CLR,0.00,VWS V14.00,2013-05-18 14:07:00,
2013-05-18 10:12:00,60.1,46.6,30.23,WSW,239,0.0,1.0,61,0.00,,CLR,0.00,VWS V14.00,2013-05-18 14:12:00,
2013-05-18 10:17:00,60.4,47.3,30.23,WSW,239,0.0,1.0,62,0.00,,CLR,0.00,VWS V14.00,2013-05-18 14:17:00,
2013-05-18 10:22:00,60.7,48.5,30.23,WSW,239,1.0,1.0,64,0.00,,CLR,0.00,VWS V14.00,2013-05-18 14:22:00,
2013-05-18 10:27:00,61.3,48.2,30.23,WSW,239,1.0,2.0,62,0.00,,CLR,0.00,VWS V14.00,2013-05-18 14:27:00,
2013-05-18 10:32:00,61.6,48.0,30.23,WSW,239,1.0,2.0,61,0.00,,CLR,0.00,VWS V14.00,2013-05-18 14:32:00,
2013-05-18 10:37:00,62.3,48.7,30.23,SSW,211,1.0,2.0,61,0.00,,CLR,0.00,VWS V14.00,2013-05-18 14:37:00,
2013-05-18 10:42:00,62.4,47.5,30.23,West,260,2.0,2.0,58,0.00,,CLR,0.00,VWS V14.00,2013-05-18 14:42:00,
2013-05-18 10:47:00,62.7,47.7,30.23,West,260,1.0,1.0,58,0.00,,CLR,0.00,VWS V14.00,2013-05-18 14:47:00,
2013-05-18 10:52:00,62.9,47.0,30.23,West,260,1.0,1.0,56,0.00,,CLR,0.00,VWS V14.00,2013-05-18 14:52:00,
2013-05-18 10:57:00,63.2,47.3,30.23,WSW,251,0.0,2.0,56,0.00,,CLR,0.00,VWS V14.00,2013-05-18 14:57:00,
2013-05-18 11:02:00,63.5,47.5,30.23,WSW,245,1.0,1.0,56,0.00,,CLR,0.00,VWS V14.00,2013-05-18 15:02:00,
2013-05-18 11:07:00,63.7,47.7,30.23,WSW,245,0.0,1.0,56,0.00,,CLR,0.00,VWS V14.00,2013-05-18 15:07:00,
2013-05-18 11:12:00,64.0,48.0,30.23,WSW,245,0.0,1.0,56,0.00,,CLR,0.00,VWS V14.00,2013-05-18 15:12:00,
2013-05-18 11:17:00,64.0,45.5,30.23,WSW,245,0.0,2.0,51,0.00,,CLR,0.00,VWS V14.00,2013-05-18 15:17:00,
2013-05-18 11:22:00,64.5,47.5,30.23,WSW,245,0.0,1.0,54,0.00,,CLR,0.00,VWS V14.00,2013-05-18 15:22:00,
2013-05-18 11:27:00,64.5,45.5,30.23,SSE,154,0.0,0.0,50,0.00,,CLR,0.00,VWS V14.00,2013-05-18 15:27:00,
2013-05-18 11:32:00,64.7,45.1,30.22,SSW,198,0.0,1.0,49,0.00,,CLR,0.00,VWS V14.00,2013-05-18 15:32:00,
2013-05-18 11:37:00,64.8,46.3,30.22,SSW,198,0.0,1.0,51,0.00,,CLR,0.00,VWS V14.00,2013-05-18 15:37:00,
2013-05-18 11:42:00,65.0,45.4,30.22,ESE,123,0.0,1.0,49,0.00,,CLR,0.00,VWS V14.00,2013-05-18 15:42:00,
2013-05-18 11:47:00,65.2,46.6,30.22,SW,230,2.0,2.0,51,0.00,,CLR,0.00,VWS V14.00,2013-05-18 15:47:00,
2013-05-18 11:52:00,65.0,45.4,30.22,SE,145,0.0,4.0,49,0.00,,CLR,0.00,VWS V14.00,2013-05-18 15:52:00,
2013-05-18 11:57:00,65.8,47.2,30.22,ENE,70,0.0,2.0,51,0.00,,CLR,0.00,VWS V14.00,2013-05-18 15:57:00,
2013-05-18 12:02:00,66.3,46.6,30.22,ENE,78,0.0,2.0,49,0.00,,CLR,0.00,VWS V14.00,2013-05-18 16:02:00,
2013-05-18 12:07:00,66.8,45.4,30.22,South,181,1.0,4.0,46,0.00,,CLR,0.00,VWS V14.00,2013-05-18 16:07:00,
2013-05-18 12:12:00,66.9,45.5,30.22,East,91,0.0,1.0,46,0.00,,CLR,0.00,VWS V14.00,2013-05-18 16:12:00,
2013-05-18 12:17:00,66.9,46.0,30.20,SSE,165,0.0,4.0,47,0.00,,CLR,0.00,VWS V14.00,2013-05-18 16:17:00,
2013-05-18 12:22:00,66.9,46.6,30.20,WSW,242,0.0,3.0,48,0.00,,CLR,0.00,VWS V14.00,2013-05-18 16:22:00,
2013-05-18 12:27:00,66.9,45.5,30.20,SSW,200,0.0,2.0,46,0.00,,CLR,0.00,VWS V14.00,2013-05-18 16:27:00,
2013-05-18 12:32:00,67.3,48.6,30.20,SE,133,1.0,3.0,51,0.00,,CLR,0.00,VWS V14.00,2013-05-18 16:32:00,
2013-05-18 12:37:00,67.6,45.5,30.20,WSW,254,2.0,2.0,45,0.00,,CLR,0.00,VWS V14.00,2013-05-18 16:37:00,
2013-05-18 12:42:00,67.6,45.5,30.20,WSW,243,1.0,2.0,45,0.00,,CLR,0.00,VWS V14.00,2013-05-18 16:42:00,
2013-05-18 12:47:00,67.9,48.1,30.20,NW,315,1.0,2.0,49,0.00,,CLR,0.00,VWS V14.00,2013-05-18 16:47:00,
2013-05-18 12:52:00,68.4,46.2,30.20,East,91,1.0,3.0,45,0.00,,CLR,0.00,VWS V14.00,2013-05-18 16:52:00,
2013-05-18 12:57:00,68.6,46.4,30.20,South,173,1.0,2.0,45,0.00,,CLR,0.00,VWS V14.00,2013-05-18 16:57:00,
2013-05-18 13:02:00,68.6,47.6,30.20,SW,236,4.0,4.0,47,0.00,,CLR,0.00,VWS V14.00,2013-05-18 17:02:00,
2013-05-18 13:07:00,68.8,45.4,30.20,WSW,238,1.0,2.0,43,0.00,,CLR,0.00,VWS V14.00,2013-05-18 17:07:00,
2013-05-18 13:12:00,68.6,46.4,30.20,ESE,108,0.0,1.0,45,0.00,,CLR,0.00,VWS V14.00,2013-05-18 17:12:00,
2013-05-18 13:17:00,68.8,47.8,30.20,SSE,159,2.0,7.0,47,0.00,,CLR,0.00,VWS V14.00,2013-05-18 17:17:00,
2013-05-18 13:22:00,68.4,44.4,30.20,SSE,157,1.0,1.0,42,0.00,,CLR,0.00,VWS V14.00,2013-05-18 17:22:00,
2013-05-18 13:27:00,68.1,46.0,30.20,SSE,157,0.0,0.0,45,0.00,,CLR,0.00,VWS V14.00,2013-05-18 17:27:00,
2013-05-18 13:32:00,68.3,45.0,30.19,South,184,2.0,2.0,43,0.00,,CLR,0.00,VWS V14.00,2013-05-18 17:32:00,
2013-05-18 13:37:00,68.4,45.0,30.19,SW,226,1.0,2.0,43,0.00,,CLR,0.00,VWS V14.00,2013-05-18 17:37:00,
2013-05-18 13:42:00,68.3,44.3,30.19,SE,133,0.0,1.0,42,0.00,,CLR,0.00,VWS V14.00,2013-05-18 17:42:00,
2013-05-18 13:47:00,68.3,45.6,30.19,SE,133,0.0,2.0,44,0.00,,FEW065,0.00,VWS V14.00,2013-05-18 17:47:00,
2013-05-18 13:52:00,68.1,45.4,30.19,East,96,0.0,0.0,44,0.00,,FEW065,0.00,VWS V14.00,2013-05-18 17:52:00,
2013-05-18 13:57:00,68.1,44.2,30.19,WSW,242,0.0,2.0,42,0.00,,FEW065,0.00,VWS V14.00,2013-05-18 17:57:00,
2013-05-18 14:02:00,68.1,44.8,30.18,ENE,78,3.0,4.0,43,0.00,,FEW065,0.00,VWS V14.00,2013-05-18 18:02:00,
2013-05-18 14:07:00,68.3,46.2,30.18,SE,127,3.0,4.0,45,0.00,,FEW065,0.00,VWS V14.00,2013-05-18 18:07:00,
2013-05-18 14:12:00,68.1,44.2,30.18,South,182,1.0,2.0,42,0.00,,FEW065,0.00,VWS V14.00,2013-05-18 18:12:00,
2013-05-18 14:17:00,67.9,44.6,30.18,SE,128,0.0,2.0,43,0.00,,FEW065,0.00,VWS V14.00,2013-05-18 18:17:00,
2013-05-18 14:22:00,67.6,44.3,30.18,SSE,149,2.0,3.0,43,0.00,,FEW065,0.00,VWS V14.00,2013-05-18 18:22:00,
2013-05-18 14:27:00,67.6,46.1,30.18,ENE,69,3.0,4.0,46,0.00,,FEW065,0.00,VWS V14.00,2013-05-18 18:27:00,
2013-05-18 14:32:00,67.4,44.8,30.18,SSE,156,0.0,1.0,44,0.00,,FEW065,0.00,VWS V14.00,2013-05-18 18:32:00,
2013-05-18 14:37:00,67.4,44.8,30.18,WNW,288,0.0,2.0,44,0.00,,FEW065,0.00,VWS V14.00,2013-05-18 18:37:00,
2013-05-18 14:42:00,67.4,44.8,30.18,West,269,1.0,1.0,44,0.00,,FEW065,0.00,VWS V14.00,2013-05-18 18:42:00,
2013-05-18 14:47:00,67.3,45.8,30.18,South,191,0.0,4.0,46,0.00,,BKN060,0.00,VWS V14.00,2013-05-18 18:47:00,
2013-05-18 14:52:00,67.1,45.1,30.18,South,171,1.0,3.0,45,0.00,,BKN060,0.00,VWS V14.00,2013-05-18 18:52:00,
2013-05-18 14:57:00,66.9,45.5,30.18,WSW,240,1.0,4.0,46,0.00,,BKN060,0.00,VWS V14.00,2013-05-18 18:57:00,
2013-05-18 15:02:00,66.8,45.9,30.18,SW,225,0.0,3.0,47,0.00,,BKN060,0.00,VWS V14.00,2013-05-18 19:02:00,
2013-05-18 15:07:00,66.6,45.2,30.18,SW,220,4.0,6.0,46,0.00,,BKN060,0.00,VWS V14.00,2013-05-18 19:07:00,
2013-05-18 15:12:00,66.3,46.0,30.18,SW,227,3.0,3.0,48,0.00,,BKN060,0.00,VWS V14.00,2013-05-18 19:12:00,
2013-05-18 15:17:00,66.0,45.8,30.19,SW,232,0.0,2.0,48,0.00,,BKN060,0.00,VWS V14.00,2013-05-18 19:17:00,
2013-05-18 15:22:00,65.8,46.1,30.19,SW,217,0.0,0.0,49,0.00,,BKN060,0.00,VWS V14.00,2013-05-18 19:22:00,
2013-05-18 15:27:00,65.5,46.9,30.19,SE,136,0.0,3.0,51,0.00,,BKN060,0.00,VWS V14.00,2013-05-18 19:27:00,
2013-05-18 15:32:00,65.2,46.6,30.19,SW,234,0.0,3.0,51,0.00,,BKN060,0.00,VWS V14.00,2013-05-18 19:32:00,
2013-05-18 15:37:00,65.0,47.0,30.19,SW,234,2.0,4.0,52,0.00,,BKN060,0.00,VWS V14.00,2013-05-18 19:37:00,
2013-05-18 15:42:00,64.8,45.7,30.19,South,173,0.0,7.0,50,0.00,,BKN060,0.00,VWS V14.00,2013-05-18 19:42:00,
2013-05-18 15:47:00,64.7,45.7,30.19,ESE,121,4.0,4.0,50,0.00,,OVC085,0.00,VWS V14.00,2013-05-18 19:47:00,
2013-05-18 15:52:00,64.7,46.2,30.19,South,185,1.0,6.0,51,0.00,,OVC085,0.00,VWS V14.00,2013-05-18 19:52:00,
2013-05-18 15:57:00,64.5,46.0,30.19,SW,231,0.0,5.0,51,0.00,,OVC085,0.00,VWS V14.00,2013-05-18 19:57:00,
2013-05-18 16:02:00,64.3,45.8,30.19,SSW,195,0.0,5.0,51,0.00,,OVC085,0.00,VWS V14.00,2013-05-18 20:02:00,
2013-05-18 16:07:00,64.2,46.2,30.19,SSW,205,3.0,4.0,52,0.00,,OVC085,0.00,VWS V14.00,2013-05-18 20:07:00,
2013-05-18 16:12:00,64.2,46.2,30.19,ESE,107,2.0,3.0,52,0.00,,OVC085,0.00,VWS V14.00,2013-05-18 20:12:00,
2013-05-18 16:17:00,63.9,44.9,30.20,SW,225,2.0,3.0,50,0.00,,OVC085,0.00,VWS V14.00,2013-05-18 20:17:00,
2013-05-18 16:22:00,63.7,43.7,30.20,SSE,162,1.0,5.0,48,0.00,,OVC085,0.00,VWS V14.00,2013-05-18 20:22:00,
2013-05-18 16:27:00,63.5,43.5,30.20,WSW,241,3.0,8.0,48,0.00,,OVC085,0.00,VWS V14.00,2013-05-18 20:27:00,
2013-05-18 16:32:00,63.4,43.9,30.20,SSW,196,1.0,3.0,49,0.00,,OVC085,0.00,VWS V14.00,2013-05-18 20:32:00,
2013-05-18 16:37:00,63.2,43.7,30.20,WSW,254,1.0,5.0,49,0.00,,OVC085,0.00,VWS V14.00,2013-05-18 20:37:00,
2013-05-18 16:42:00,63.1,43.7,30.20,SSW,195,1.0,7.0,49,0.00,,OVC085,0.00,VWS V14.00,2013-05-18 20:42:00,
2013-05-18 16:47:00,63.1,44.7,30.20,West,261,2.0,6.0,51,0.00,,OVC080,0.00,VWS V14.00,2013-05-18 20:47:00,
2013-05-18 16:52:00,62.9,44.5,30.20,SW,231,2.0,11.0,51,0.00,,OVC080,0.00,VWS V14.00,2013-05-18 20:52:00,
2013-05-18 16:57:00,62.9,45.0,30.20,SE,146,0.0,4.0,52,0.00,,OVC080,0.00,VWS V14.00,2013-05-18 20:57:00,
2013-05-18 17:02:00,62.7,45.3,30.21,SW,223,5.0,5.0,53,0.00,,OVC080,0.00,VWS V14.00,2013-05-18 21:02:00,
2013-05-18 17:07:00,62.6,46.2,30.21,South,182,3.0,7.0,55,0.00,,OVC080,0.00,VWS V14.00,2013-05-18 21:07:00,
2013-05-18 17:12:00,62.4,46.0,30.21,SW,234,6.0,7.0,55,0.00,,OVC080,0.00,VWS V14.00,2013-05-18 21:12:00,
2013-05-18 17:17:00,62.1,46.2,30.22,West,267,4.0,9.0,56,0.00,,OVC080,0.00,VWS V14.00,2013-05-18 21:17:00,
2013-05-18 17:22:00,62.0,46.1,30.22,SW,219,1.0,7.0,56,0.00,,OVC080,0.00,VWS V14.00,2013-05-18 21:22:00,
2013-05-18 17:27:00,61.6,45.8,30.22,WSW,255,2.0,6.0,56,0.00,,OVC080,0.00,VWS V14.00,2013-05-18 21:27:00,
2013-05-18 17:32:00,61.5,45.7,30.22,SW,223,0.0,2.0,56,0.00,,OVC080,0.00,VWS V14.00,2013-05-18 21:32:00,
2013-05-18 17:37:00,61.5,46.6,30.22,SSE,160,0.0,7.0,58,0.00,,OVC080,0.00,VWS V14.00,2013-05-18 21:37:00,
2013-05-18 17:42:00,61.2,45.9,30.22,ESE,106,2.0,6.0,57,0.00,,OVC080,0.00,VWS V14.00,2013-05-18 21:42:00,
2013-05-18 17:47:00,61.0,45.7,30.22,NE,48,1.0,3.0,57,0.00,,CLR,0.00,VWS V14.00,2013-05-18 21:47:00,
2013-05-18 17:52:00,60.9,45.6,30.22,WSW,246,0.0,3.0,57,0.00,,CLR,0.00,VWS V14.00,2013-05-18 21:52:00,
2013-05-18 17:57:00,60.7,45.8,30.22,SSE,165,1.0,10.0,58,0.00,,CLR,0.00,VWS V14.00,2013-05-18 21:57:00,
2013-05-18 18:02:00,60.5,45.7,30.22,SSE,166,2.0,6.0,58,0.00,,CLR,0.00,VWS V14.00,2013-05-18 22:02:00,
2013-05-18 18:07:00,60.2,45.4,30.22,West,264,2.0,3.0,58,0.00,,CLR,0.00,VWS V14.00,2013-05-18 22:07:00,
2013-05-18 18:12:00,60.1,45.7,30.22,WSW,247,1.0,4.0,59,0.00,,CLR,0.00,VWS V14.00,2013-05-18 22:12:00,
2013-05-18 18:17:00,59.9,45.5,30.22,ESE,105,2.0,3.0,59,0.00,,CLR,0.00,VWS V14.00,2013-05-18 22:17:00,
2013-05-18 18:22:00,59.8,45.9,30.22,WSW,239,1.0,2.0,60,0.00,,CLR,0.00,VWS V14.00,2013-05-18 22:22:00,
2013-05-18 18:27:00,59.6,45.7,30.22,WSW,256,0.0,6.0,60,0.00,,CLR,0.00,VWS V14.00,2013-05-18 22:27:00,
2013-05-18 18:32:00,59.6,45.7,30.23,West,261,1.0,5.0,60,0.00,,CLR,0.00,VWS V14.00,2013-05-18 22:32:00,
2013-05-18 18:37:00,59.8,45.9,30.23,SW,235,1.0,1.0,60,0.00,,CLR,0.00,VWS V14.00,2013-05-18 22:37:00,
2013-05-18 18:42:00,60.1,46.2,30.23,WSW,254,2.0,3.0,60,0.00,,CLR,0.00,VWS V14.00,2013-05-18 22:42:00,
2013-05-18 18:47:00,60.2,46.3,30.23,West,277,2.0,2.0,60,0.00,,CLR,0.00,VWS V14.00,2013-05-18 22:47:00,
2013-05-18 18:52:00,60.2,46.3,30.23,SW,230,2.0,2.0,60,0.00,,CLR,0.00,VWS V14.00,2013-05-18 22:52:00,
2013-05-18 18:57:00,60.1,46.6,30.23,WNW,290,4.0,4.0,61,0.00,,CLR,0.00,VWS V14.00,2013-05-18 22:57:00,
2013-05-18 19:02:00,59.9,46.4,30.23,West,265,3.0,3.0,61,0.00,,CLR,0.00,VWS V14.00,2013-05-18 23:02:00,
2013-05-18 19:07:00,59.8,46.8,30.23,West,265,1.0,3.0,62,0.00,,CLR,0.00,VWS V14.00,2013-05-18 23:07:00,
2013-05-18 19:12:00,59.6,47.0,30.23,West,265,0.0,2.0,63,0.00,,CLR,0.00,VWS V14.00,2013-05-18 23:12:00,
2013-05-18 19:17:00,59.5,46.9,30.22,WSW,244,1.0,3.0,63,0.00,,CLR,0.00,VWS V14.00,2013-05-18 23:17:00,
2013-05-18 19:22:00,59.5,47.3,30.22,ESE,119,3.0,5.0,64,0.00,,CLR,0.00,VWS V14.00,2013-05-18 23:22:00,
2013-05-18 19:27:00,59.3,47.5,30.22,ESE,118,0.0,0.0,65,0.00,,CLR,0.00,VWS V14.00,2013-05-18 23:27:00,
2013-05-18 19:32:00,59.3,47.5,30.24,SSW,213,0.0,2.0,65,0.00,,CLR,0.00,VWS V14.00,2013-05-18 23:32:00,
2013-05-18 19:37:00,59.3,48.0,30.24,WSW,248,1.0,3.0,66,0.00,,CLR,0.00,VWS V14.00,2013-05-18 23:37:00,
2013-05-18 19:42:00,59.2,48.3,30.24,South,171,0.0,2.0,67,0.00,,CLR,0.00,VWS V14.00,2013-05-18 23:42:00,
2013-05-18 19:47:00,59.0,48.1,30.24,SW,219,2.0,2.0,67,0.00,,BKN110,0.00,VWS V14.00,2013-05-18 23:47:00,
2013-05-18 19:52:00,58.7,47.8,30.24,SSE,149,0.0,2.0,67,0.00,,BKN110,0.00,VWS V14.00,2013-05-18 23:52:00,
2013-05-18 19:57:00,58.6,48.1,30.24,SSE,149,0.0,0.0,68,0.00,,BKN110,0.00,VWS V14.00,2013-05-18 23:57:00,
2013-05-18 20:02:00,58.3,47.8,30.24,SSE,149,0.0,1.0,68,0.00,,BKN110,0.00,VWS V14.00,2013-05-19 00:02:00,
2013-05-18 20:07:00,58.1,48.0,30.24,ESE,119,0.0,1.0,69,0.00,,BKN110,0.00,VWS V14.00,2013-05-19 00:07:00,
2013-05-18 20:12:00,57.8,48.1,30.24,SSE,160,0.0,0.0,70,0.00,,BKN110,0.00,VWS V14.00,2013-05-19 00:12:00,
2013-05-18 20:17:00,57.5,47.8,30.23,South,178,0.0,1.0,70,0.00,,BKN110,0.00,VWS V14.00,2013-05-19 00:17:00,
2013-05-18 20:22:00,57.3,47.6,30.23,SSE,156,1.0,3.0,70,0.00,,BKN110,0.00,VWS V14.00,2013-05-19 00:22:00,
2013-05-18 20:27:00,57.0,47.7,30.23,SSW,210,0.0,0.0,71,0.00,,BKN110,0.00,VWS V14.00,2013-05-19 00:27:00,
2013-05-18 20:32:00,56.7,47.4,30.23,SE,128,2.0,2.0,71,0.00,,BKN110,0.00,VWS V14.00,2013-05-19 00:32:00,
2013-05-18 20:37:00,56.5,47.2,30.23,SE,127,3.0,4.0,71,0.00,,BKN110,0.00,VWS V14.00,2013-05-19 00:37:00,
2013-05-18 20:42:00,56.3,47.0,30.23,SE,130,0.0,1.0,71,0.00,,BKN110,0.00,VWS V14.00,2013-05-19 00:42:00,
2013-05-18 20:47:00,56.0,46.7,30.22,ESE,123,0.0,2.0,71,0.00,,OVC110,0.00,VWS V14.00,2013-05-19 00:47:00,
2013-05-18 20:52:00,55.9,46.7,30.22,ESE,123,2.0,2.0,71,0.00,,OVC110,0.00,VWS V14.00,2013-05-19 00:52:00,
2013-05-18 20:57:00,55.7,46.5,30.22,ESE,123,1.0,1.0,71,0.00,,OVC110,0.00,VWS V14.00,2013-05-19 00:57:00,
2013-05-18 21:02:00,55.4,46.2,30.22,SE,124,0.0,0.0,71,0.00,,OVC110,0.00,VWS V14.00,2013-05-19 01:02:00,
2013-05-18 21:07:00,55.3,45.7,30.22,SE,126,0.0,1.0,70,0.00,,OVC110,0.00,VWS V14.00,2013-05-19 01:07:00,
2013-05-18 21:12:00,55.1,45.5,30.22,SSE,156,2.0,2.0,70,0.00,,OVC110,0.00,VWS V14.00,2013-05-19 01:12:00,
2013-05-18 21:17:00,54.8,45.2,30.22,ESE,107,1.0,3.0,70,0.00,,OVC110,0.00,VWS V14.00,2013-05-19 01:17:00,
2013-05-18 21:22:00,54.7,45.1,30.22,SE,126,0.0,1.0,70,0.00,,OVC110,0.00,VWS V14.00,2013-05-19 01:22:00,
2013-05-18 21:27:00,54.7,45.1,30.22,SE,126,0.0,0.0,70,0.00,,OVC110,0.00,VWS V14.00,2013-05-19 01:27:00,
2013-05-18 21:32:00,54.5,44.9,30.22,SE,132,0.0,2.0,70,0.00,,OVC110,0.00,VWS V14.00,2013-05-19 01:32:00,
2013-05-18 21:37:00,54.5,44.9,30.22,SE,130,0.0,1.0,70,0.00,,OVC110,0.00,VWS V14.00,2013-05-19 01:37:00,
2013-05-18 21:42:00,54.4,44.8,30.22,SE,130,0.0,0.0,70,0.00,,OVC110,0.00,VWS V14.00,2013-05-19 01:42:00,
2013-05-18 21:47:00,54.2,45.0,30.23,NE,52,0.0,1.0,71,0.00,,OVC110,0.00,VWS V14.00,2013-05-19 01:47:00,
2013-05-18 21:52:00,54.2,45.0,30.23,ENE,74,0.0,2.0,71,0.00,,OVC110,0.00,VWS V14.00,2013-05-19 01:52:00,
2013-05-18 21:57:00,54.2,45.4,30.23,SSE,154,0.0,0.0,72,0.00,,OVC110,0.00,VWS V14.00,2013-05-19 01:57:00,
2013-05-18 22:02:00,54.2,45.4,30.23,ESE,103,0.0,0.0,72,0.00,,OVC110,0.00,VWS V14.00,2013-05-19 02:02:00,
2013-05-18 22:07:00,54.1,45.3,30.23,SE,130,0.0,1.0,72,0.00,,OVC110,0.00,VWS V14.00,2013-05-19 02:07:00,
2013-05-18 22:12:00,54.1,45.7,30.23,ESE,114,0.0,2.0,73,0.00,,OVC110,0.00,VWS V14.00,2013-05-19 02:12:00,
2013-05-18 22:17:00,54.2,45.8,30.23,ESE,109,0.0,1.0,73,0.00,,OVC110,0.00,VWS V14.00,2013-05-19 02:17:00,
2013-05-18 22:22:00,54.2,45.8,30.23,ESE,109,0.0,0.0,73,0.00,,OVC110,0.00,VWS V14.00,2013-05-19 02:22:00,
2013-05-18 22:27:00,54.2,45.8,30.23,ESE,109,0.0,0.0,73,0.00,,OVC110,0.00,VWS V14.00,2013-05-19 02:27:00,
2013-05-18 22:32:00,54.2,46.1,30.23,SE,124,0.0,0.0,74,0.00,,OVC110,0.00,VWS V14.00,2013-05-19 02:32:00,
2013-05-18 22:37:00,54.4,46.3,30.23,ESE,118,0.0,2.0,74,0.00,,OVC110,0.00,VWS V14.00,2013-05-19 02:37:00,
2013-05-18 22:42:00,54.4,46.3,30.23,ESE,118,1.0,1.0,74,0.00,,OVC110,0.00,VWS V14.00,2013-05-19 02:42:00,
2013-05-18 22:47:00,54.4,46.7,30.23,SSW,198,0.0,0.0,75,0.00,,OVC100,0.00,VWS V14.00,2013-05-19 02:47:00,
2013-05-18 22:52:00,54.4,46.7,30.23,SSW,198,0.0,2.0,75,0.00,,OVC100,0.00,VWS V14.00,2013-05-19 02:52:00,
2013-05-18 22:57:00,54.4,47.0,30.23,SE,128,2.0,4.0,76,0.00,,OVC100,0.00,VWS V14.00,2013-05-19 02:57:00,
2013-05-18 23:02:00,54.5,47.1,30.23,ESE,122,0.0,1.0,76,0.00,,OVC100,0.00,VWS V14.00,2013-05-19 03:02:00,
2013-05-18 23:07:00,54.5,47.1,30.23,SE,128,0.0,0.0,76,0.00,,OVC100,0.00,VWS V14.00,2013-05-19 03:07:00,
2013-05-18 23:12:00,54.5,47.5,30.23,ESE,123,0.0,2.0,77,0.00,,OVC100,0.00,VWS V14.00,2013-05-19 03:12:00,
2013-05-18 23:17:00,54.5,47.5,30.22,SE,142,2.0,2.0,77,0.00,,OVC100,0.00,VWS V14.00,2013-05-19 03:17:00,
2013-05-18 23:22:00,54.5,47.5,30.22,SSW,212,0.0,0.0,77,0.00,,OVC100,0.00,VWS V14.00,2013-05-19 03:22:00,
2013-05-18 23:27:00,54.5,47.5,30.22,ESE,114,0.0,1.0,77,0.00,,OVC100,0.00,VWS V14.00,2013-05-19 03:27:00,
2013-05-18 23:32:00,54.5,47.8,30.23,ESE,114,0.0,0.0,78,0.00,,OVC100,0.00,VWS V14.00,2013-05-19 03:32:00,
2013-05-18 23:37:00,54.4,47.7,30.23,ESE,114,0.0,0.0,78,0.00,,OVC100,0.00,VWS V14.00,2013-05-19 03:37:00,
2013-05-18 23:42:00,54.4,47.7,30.23,ESE,114,0.0,0.0,78,0.00,,OVC100,0.00,VWS V14.00,2013-05-19 03:42:00,
2013-05-18 23:47:00,54.2,47.5,30.23,ESE,114,0.0,1.0,78,0.00,,OVC100,0.00,VWS V14.00,2013-05-19 03:47:00,
2013-05-18 23:52:00,54.2,47.8,30.23,ESE,114,0.0,0.0,79,0.00,,OVC100,0.00,VWS V14.00,2013-05-19 03:52:00,
2013-05-18 23:57:00,54.4,48.0,30.23,SE,134,0.0,0.0,79,0.00,,OVC100,0.00,VWS V14.00,2013-05-19 03:57:00,